Location: Vinland
(47.7731°N, 122.6974°W)
Time: 16:25:44
(UTC+00:00)

Vanguard 1 - Visible Passes

Search period start: 31 March 2023 00:00
Search period end: 10 April 2023 00:00
Orbit: 648 x 3832 km, 34.3° (Epoch: 30 March)

Date Brightness Start Highest point End Pass type
(mag) Time Alt. Az. Time Alt. Az. Time Alt. Az.
31 Mar 13.2 04:13:53 10° W 04:26:48 22° SW 04:36:16 10° S visible
01 Apr 13.4 04:36:37 10° W 04:46:23 16° SW 04:54:07 10° SSW visible
02 Apr 13.6 05:01:42 10° WSW 05:05:51 11° WSW 05:09:36 10° SW visible
03 Apr 13.4 02:48:47 10° W 03:06:15 31° SW 03:19:06 10° SSE visible
04 Apr 13.5 03:10:35 10° W 03:26:03 25° SW 03:37:52 10° S visible
05 Apr 13.7 03:33:01 10° W 03:45:42 19° SW 03:55:55 10° SSW visible
06 Apr 13.9 03:56:52 10° W 04:05:13 14° WSW 04:12:30 10° SSW visible
